Regional Weather Roundup
Issued by NWS

Home | Current Version | Previous Version | Graphics & Text | Print | Product List | Glossary On
Versions: 1 2 3 4 5 6 7 8 9 10 11 12 13 14 15 16 17 18 19 20 21 22 23 24 25 26 27 28 29 30 31 32 33 34 35 36 37 38 39 40 41 42 43 44 45 46 47 48 49 50
877
ASUS45 KBOU 242110
RWRCO

WEATHER ROUNDUP FOR COLORADO
NATIONAL WEATHER SERVICE DENVER/BOULDER CO
300 PM MDT SAT SEP 24 2016

NOTE: "FAIR" INDICATES FEW OR NO CLOUDS BELOW 12000 FEET WITH NO
SIGNIFICANT WEATHER AND/OR OBSTRUCTIONS TO VISIBILITY.

COZ001>005-013-030-031-242200-
...NORTHWEST COLORADO...

CITY           SKY/WX    TMP DP  RH WIND       PRES   REMARKS
CRAIG          CLOUDY    48  40  73 W12       30.22R
HAYDEN         FAIR      45  36  70 W17       30.21R
MEEKER         CLOUDY    49  39  68 W10       30.23R
MOUNT WERNER   NOT AVBL
STEAMBOAT SPGS CLOUDY    42  38  88 W10       30.22R
WALDEN           N/A     48  28  46 SW15G23   30.19R
$$

COZ006>008-011-242200-
...WEST CENTRAL VALLEYS...

CITY           SKY/WX    TMP DP  RH WIND       PRES   REMARKS
GRAND JUNCTION CLOUDY    58  42  55 N6        30.19S
MONTROSE       CLOUDY    55  36  48 N6        30.24S
EAGLE          PTSUNNY   54  34  47 SW17      30.22R
RIFLE          CLOUDY    53  43  68 CALM      30.22R
DELTA          NOT AVBL
NUCLA          CLOUDY    55  34  44 N5        30.26R
$$

COZ017>023-064>068-242200-
...SOUTHWEST COLORADO...

CITY           SKY/WX    TMP DP  RH WIND       PRES   REMARKS
DURANGO        CLOUDY    58  32  37 W12G18    30.19F
CORTEZ         CLOUDY    58  35  42 W5        30.20F
PAGOSA SPRINGS PTSUNNY   53  29  39 SW5       30.22S
TELLURIDE      CLOUDY    43  31  63 W10       30.32S
WOLF CREEK PAS CLOUDY    32  30  93 SW10      30.39S WCI  24
$$

COZ009-010-012-014-032>034-037-058>063-242200-
...CENTRAL COLORADO...

CITY           SKY/WX    TMP DP  RH WIND       PRES   REMARKS
ASPEN          CLOUDY    46  36  68 NW10G18   30.23R
BUENA VISTA    CLOUDY    53  23  31 W18G25    30.19R
COPPER MTN     CLOUDY    32  28  86 MISG      30.31R
BERTHOUD PASS  CLOUDY    25  10  54 NW22      30.29R WCI  10
COTTONWOOD PAS CLOUDY    45  27  49 NW6       30.27R
GUNNISON       CLOUDY    47  33  58 E5        30.26S
KREMMLING      CLOUDY    50  32  50 W8        30.20S
LEADVILLE      CLOUDY    40  24  53 NW9       30.25R
MONARCH PASS   CLOUDY    28  27  93 W35G40    30.41S WCI  12
SALIDA         FAIR      54  30  40 SW20G30   30.29R
SUNLIGHT       SNOW      34  32  93 MISG      30.36R VSB 1/2
WILKERSON PASS CLOUDY    36  21  55 SW5       30.31R
$$

COZ069>075-242200-
...SAN LUIS VALLEY/SANGRE DE CRISTO MOUNTAINS...

CITY           SKY/WX    TMP DP  RH WIND       PRES   REMARKS
ALAMOSA        FAIR      59  26  28 VRB7      30.16F
LA VETA PASS   NOT AVBL
SAGUACHE       NOT AVBL
$$

COZ035-036-038>040-242200-
...NORTHERN COLORADO FRONT RANGE...

CITY           SKY/WX    TMP DP  RH WIND       PRES   REMARKS
DENVER INTL AP FAIR      71  26  18 NW23      30.01R
DMNS CITY PARK   N/A     65  24  21 N6G18     30.01R
AURORA         PTSUNNY   67  22  18 W9        30.02R
FRONT RANGE AP PTSUNNY   68  19  15 N12G22    30.01S
ERIE MUNI ARPT FAIR      69  23  18 W18G30    30.02R
BOULDER MUN AP FAIR      68  28  22 W22G33    30.02S
CENTENNIAL     PTSUNNY   65  23  20 NW6       30.02R
BROOMFIELD     NOT AVBL
FORT COLLINS   FAIR      66  30  26 S7        30.00S
LONGMONT       FAIR      71  27  19 W16G25    30.03R
$$

COZ041-046-047-076>085-087-088-242200-
...PIKES PEAK/PALMER DIVIDE AND SOUTHERN FOOTHILLS...

CITY           SKY/WX    TMP DP  RH WIND       PRES   REMARKS
COLO. SPRINGS  FAIR      69  22  16 W8G17     30.04S
A. F. ACADEMY  CLOUDY    64  22  19 SE10      30.04S
SCHRIEVER AFB  NOT AVBL
ELLICOTT       FAIR     N/A N/A N/A NW8       30.02F
FALCON         FAIR      66  19  16 CALM      30.08S
FORT CARSON    FAIR      71  23  16 SW20G25   30.00F
LIMON          FAIR      71  19  14 VRB7      29.99F
MONUMENT HILL  PTSUNNY   61  23  23 W10       30.09S
TRINIDAD       FAIR      72  20  14 N9        30.03F
$$

COZ042>045-048>051-090-091-242200-
...NORTHEAST COLORADO...

CITY           SKY/WX    TMP DP  RH WIND       PRES   REMARKS
GREELEY ARPT   PTSUNNY   66  34  30 NW12      30.00R
AKRON          FAIR      70  25  18 SW7       29.97F
BURLINGTON     FAIR      71  31  22 CALM      29.98F
WRAY           NOT AVBL
STERLING       FAIR      73  30  20 S8        29.95S
HOLYOKE        FAIR      79  32  18 S5        29.95F
FORT MORGAN    FAIR      73  22  15 W3        29.99S
$$

COZ086-089-092>099-242200-
...SOUTHEAST COLORADO...

CITY           SKY/WX    TMP DP  RH WIND       PRES   REMARKS
PUEBLO         FAIR      75  21  13 SW10      29.97F
LA JUNTA       FAIR      75  24  15 MISG      29.97F
LAMAR          FAIR      75  32  20 S5        29.95F
SPRINGFIELD    NOT AVBL
$$




USA.gov is the U.S. government's official web portal to all federal, state and local government web resources and services.